Billings, MT (59101)

6:06 PM MDT on September 01, 2015 (GMT -0600)
South of Castle Rock Park | | Change Station
CLOSE
Current Station
Personal Weather Station
Location: Billings, MT
Elevation: 3297 ft
Nearby Weather Stations

Elev 3297 ft 45.82 °N, 108.50 °W | Updated 4 seconds ago

Clear
Clear
93.6 °F
Feels Like 89 °F
N
0.0
Wind Variable Wind from SE
Gusts 1.1 mph

Today
High -- | Low -- °F
--% Chance of Precip.
Yesterday
High -- | Low -- °F
Precip. -- in
6:34 AM 7:52 PM
Waning Gibbous, 85% visible
Pressure 29.68 in
Visibility 10.0 miles
Clouds Few 13000 ft
Heat Index 89 °F
Dew Point 40 °F
Humidity 16%
Rainfall 0.00 in
Snow Depth Not available.
UV 1 out of 12
Pollen 9.10 out of 12
Air Quality Not available.
Flu Activity Not available.
METAR KBIL 012353Z 15004KT 10SM FEW130 32/M03 A2979 RMK AO2 SLP051 T03221028 10328 20278 56014
Pressure 29.68 in
Visibility 10.0 miles
Clouds Few 13000 ft
Heat Index 89 °F
Dew Point 40 °F
Humidity 16%
Rainfall 0.00 in
Snow Depth Not available.
UV 1 out of 12
Pollen 9.10 out of 12
Air Quality Not available.
Flu Activity Not available.
METAR KBIL 012353Z 15004KT 10SM FEW130 32/M03 A2979 RMK AO2 SLP051 T03221028 10328 20278 56014

10-Day Weather Forecast

×

Almanac

Astronomy

Sep. 01, 2015 Rise Set
Actual Time
Civil Twilight
Nautical Twilight
Astronomical Twilight
Moon
Length of Visible Light
Length of Day
Tomorrow will be .
, % of the Moon is Illuminated

Today's Extremes

State Highs State Lows

Community

WunderPhotos

Upload Photos

1,851,653 photos uploaded!

WunderBlogs® & News

Nearby

Air Quality

  Air Quality AQ Index Pollutant
Not available.

Snow Depth

Station Depth Elevation

Earthquake Activity

City Distance Mag. Time & Date
Minimum magnitude displayed is 2.5.

Coastal Water Temperatures

Place Temperature

Stations

Nearby Weather Stations

Station Location Temp. Windchill Dew Point Humidity Wind Precip. Elev Updated Type